Location: Lindau-Bodensee
(47.5564°N, 9.6944°E)
Time: 01:24:54
(UTC+01:00)

ISS - Visible Passes

Search period start: 17 January 2021 00:00
Search period end: 27 January 2021 00:00
Orbit: 418 x 419 km, 51.6° (Epoch: 17 January)

Date Brightness Start Highest point End Pass type
(mag) Time Alt. Az. Time Alt. Az. Time Alt. Az.
17 Jan -0.8 19:28:23 10° SSW 19:28:23 10° SSW 19:28:23 10° SSW visible
18 Jan -1.6 18:41:33 10° S 18:43:00 14° SSE 18:43:00 14° SSE visible
19 Jan -1.8 19:28:53 10° SW 19:30:29 25° SW 19:30:29 25° SW visible
20 Jan -2.9 18:41:25 10° SSW 18:44:30 34° SE 18:44:55 32° SE visible
20 Jan -0.2 20:17:51 10° W 20:17:53 10° W 20:17:53 10° W visible
21 Jan -2.1 17:54:10 10° SSW 17:56:51 22° SE 17:59:17 12° E visible
21 Jan -2.3 19:30:01 10° WSW 19:32:14 38° WSW 19:32:14 38° WSW visible
22 Jan -3.8 18:42:14 10° WSW 18:45:36 76° SSE 18:46:31 44° ENE visible
22 Jan -0.2 20:19:20 10° W 20:19:28 11° W 20:19:28 11° W visible
23 Jan -3.3 17:54:34 10° SW 17:57:50 51° SSE 18:00:45 12° ENE visible
23 Jan -2.3 19:31:24 10° W 19:33:42 35° WNW 19:33:42 35° WNW visible
24 Jan -3.5 18:43:28 10° W 18:46:48 59° NNW 18:47:54 37° NE visible
24 Jan -0.2 20:20:44 10° WNW 20:20:50 11° WNW 20:20:50 11° WNW visible
25 Jan -3.7 17:55:35 10° WSW 17:58:57 78° NNW 18:02:03 12° ENE visible
25 Jan -2.1 19:32:49 10° WNW 19:35:00 30° NW 19:35:00 30° NW visible
26 Jan -3.0 18:44:51 10° W 18:48:06 42° N 18:49:08 31° NE visible
26 Jan -0.2 20:22:00 10° WNW 20:22:04 11° WNW 20:22:04 11° WNW visible
